Regional Weather Roundup
Issued by NWS Grand Forks, ND

Home | Current Version | Previous Version | Text Only | Print | Product List | Glossary Off
Versions: 1 2 3 4 5 6 7 8 9 10 11 12 13 14 15 16 17 18 19 20 21 22 23 24 25 26 27 28 29 30 31 32 33 34 35 36 37 38 39 40 41 42 43 44 45 46 47 48 49 50

000
ASUS43 KFGF 231110
RWRFGF
PRAIRIE TO PINES  WEATHER ROUNDUP
NATIONAL WEATHER SERVICE EASTERN NORTH DAKOTA/GRAND FORKS ND
600 AM CDT WED APR 23 2014

 **SATELLITE DATA USED TO AUGMENT SKY COVER AT AUTOMATED STATIONS**
 *****  WEATHER ACROSS EASTERN NORTH DAKOTA  *****

CITY           SKY/WX    TMP DP  RH WIND       PRES   REMARKS
GRAND FORKS    CLOUDY    44  28  53 SE18      29.92F
GRAND FRKS AFB CLOUDY    42  29  61 SE14      29.91F
GRAND FRKS NWS   N/A     43 N/A N/A E16         N/A
DEVILS LAKE    CLOUDY    45  28  53 SE18G28   29.81S
FARGO          CLOUDY    48  30  49 SE15      29.92F
WAHPETON ARPT  CLOUDY    43  34  70 SE17G25   29.94S
$$

 ***** WEATHER ACROSS CENTRAL AND WESTERN NORTH DAKOTA  *****

CITY           SKY/WX    TMP DP  RH WIND       PRES   REMARKS
BISMARCK       CLOUDY    51  39  63 E20G28    29.63F
MINOT          LGT RAIN  44  39  82 E18       29.65F
JAMESTOWN      LGT RAIN  44  42  93 SE23G30   29.79F
MINOT AFB      LGT RAIN  45  40  80 SE22G31   29.65F
GARRISON         N/A     48  42  80 SE21      29.62S
WILLISTON      CLOUDY    52  38  58 SE30G41   29.41F
DICKINSON      CLOUDY    48  35  60 E24G33    29.43F
HETTINGER      MOCLDY    50  35  56 E21       29.44F
$$

 *****  OTHER AIRPORT OBSERVATIONS IN OUR AREA  *****

CITY           SKY/WX    TMP DP  RH WIND       PRES   REMARKS
WALHALLA       PTSUNNY   36  32  87 SE8       29.93F
GRAFTON AIRPOR FAIR      37  28  70 SE12      29.93F
VALLEY CITY AR CLOUDY    41  41 100 SE17G24   29.85F FOG
CANDO          PTSUNNY   41  32  70 SE18G24   29.81S
CAVALIER APRT  FAIR      34  28  80 SE7       29.93F
GWINNER        PTSUNNY   45  45 100 SE25G32   29.87R
SHEYENNE NWR     N/A     43  41  91 SE14      29.95
ROLLA          FAIR      39  32  75 SE16G23   29.81F
 ***** THE ABOVE OBSERVATIONS ARE NON NWS ARE NOT QUALITY
       CONTROLLED AND MAY MIS-REPORT RAIN FOR SNOW...
$$

  *****  WEATHER ACROSS NORTHERN MINNESOTA  *****

CITY           SKY/WX    TMP DP  RH WIND       PRES   REMARKS
FLAG ISLAND    CLEAR     36  21  55 E6        30.04F
WARROAD        CLEAR     34  25  69 SE6       30.03S
ROSEAU         CLEAR     37  25  60 SE9       30.02S
HALLOCK        CLOUDY    41  25  52 SE14      29.96F
THF RVR FALLS  CLOUDY    36  25  64 E10       29.99F
BAUDETTE       CLEAR     34  22  61 SE8       30.05F
WASKISH        PTCLDY    32  23  69 E6        30.05S
CROOKSTON      CLOUDY    43  28  56 SE13      29.96F
$$
  *****  WEATHER ACROSS CENTRAL AND WEST MINNESOTA  *****

CITY           SKY/WX    TMP DP  RH WIND       PRES   REMARKS
FOSSTON        CLOUDY    37  21  52 SE6       29.99F
BEMIDJI        CLOUDY    31  21  66 E5        30.03S
PARK RAPIDS    CLOUDY    39  23  52 SE8       30.02S
ELBOW LAKE     DRIZZLE   45  30  55 SE20      29.96S
WADENA         CLOUDY    41  27  56 SE9       30.01F
DETROIT LAKES  CLOUDY    43  28  56 SE13      29.98F
MOORHEAD       CLOUDY    48  30  49 SE13      29.94F
FERGUS FALLS   CLOUDY    46  25  42 SE16G22   29.93F
MORRIS MN      LGT RAIN  43  36  75 SE18      29.97F
STAPLES        CLOUDY    41  25  52 SE8       30.03F
$$
  *****  WEATHER ELSEWHERE ACROSS MINNESOTA  *****

CITY           SKY/WX    TMP DP  RH WIND       PRES   REMARKS
DULUTH         PTCLDY    31  23  72 E5        30.10S
INTRNTL FALLS  CLEAR     25  20  81 E5        30.08S WCI  19
ELY            CLEAR     21  19  93 CALM      30.12R
CLOQUET        MOCLDY    30  25  80 CALM      30.11R
WHEATON        LGT RAIN  45  39  81 SE22      29.95F
BRAINERD       CLOUDY    40  25  55 SE3       30.07R
HIBBING        PTCLDY    23  20  88 CALM      30.10R
ALEXANDRIA     CLOUDY    44  27  51 SE14      30.00F
SAINT CLOUD    CLOUDY    43  26  51 SE7       30.06S
MINNEAPOLIS    CLOUDY    43  27  53 SE13      30.09S
$$

  *****  WEATHER ACROSS SOUTH DAKOTA  *****

CITY           SKY/WX    TMP DP  RH WIND       PRES   REMARKS
SIOUX FALLS    LGT RAIN  50  37  61 SE22G29   29.91S
BROOKINGS      NOT AVBL
WATERTOWN      LGT RAIN  46  38  73 SE14G24   29.83F
HURON          CLOUDY    54  34  46 SE23G38   29.72S
SISSETON         N/A     43  40  89 SE18G30   29.89F
ABERDEEN       CLOUDY    50  37  61 SE18G26   29.76S
MITCHELL       MOCLDY    51  36  56 SE30G38   29.75F
PIERRE         CLOUDY    54  34  46 SE30G41   29.54F
MOBRIDGE       CLOUDY    52  40  63 SE17G30   29.58F
RAPID CITY     CLOUDY    53  41  63 S8        29.46R
$$

  *****  SOME WEATHER IN NEARBY STATES *****

CITY           SKY/WX    TMP DP  RH WIND       PRES   REMARKS
GLASGOW MT     MOCLDY    50  32  50 E8        29.38S
GREAT FALLS MT CLOUDY    38  31  76 SW14      29.59R
CHEYENNE WY    CLOUDY    50  30  46 W10       29.61R
SCOTTSBLUFF NE CLOUDY    54  44  69 E8        29.50S
OMAHA NE       PTCLDY    54  33  45 SE17      29.92F
DES MOINES IA  MOCLDY    50  33  52 SE9       30.03S
DAVENPORT IA   CLEAR     35  28  75 E7        30.14R
CHICAGO IL     PTCLDY    34  26  72 N5        30.14R
EAU CLAIRE WI  CLOUDY    31  26  82 CALM      30.13R
LA CROSSE WI   CLEAR     37  27  67 E6        30.14R
$$

  *****  SOME NATIONAL WEATHER *****

CITY           SKY/WX    TMP DP  RH WIND       PRES   REMARKS
LA GUARDIA NY  MOCLDY    50  34  54 W18G28    29.56R
RALEIGH NC     PTCLDY    58  41  53 CALM      29.76R
ATLANTA GA     CLEAR     56  50  80 NW9       29.90R
NEW ORLEANS LA CLEAR     61  61 100 CALM      29.94S
OKLAHOMA CITY  PTCLDY    52  41  66 SE8       29.88F
ALBUQUERQUE NM CLOUDY    59  29  31 SE3       29.84F
SALT LAKE CITY MOCLDY    42  36  79 W9        29.93R
LOS ANGELES CA PTCLDY    58  49  72 NE7       29.93F
BOISE ID       PTCLDY    34  27  75 CALM      29.97R
SEATTLE WA     MOCLDY    44  40  85 S12       29.89R
$$

*** WEATHER ACROSS MANITOBA...SASKATCHEWAN AND ONTARIO ***
                ***ONTARIO***

CITY           SKY/WX    TMP DP  RH WIND       PRES   REMARKS
GERALDTON      CLEAR     18  16  93 CALM      30.11R
THUNDER BAY    CLEAR     23  23 100 W3        30.15S
SIOUX LOOKOUT  CLEAR     21  19  93 S3        30.10R
TORONTO        CLOUDY    37  30  75 N21G30    29.85R
BIG TROUT LK   CLEAR     21  18  86 CALM      30.12R
PICKLE LAKE    MOCLDY    30  19  64 E3        30.07
DRYDEN         CLEAR     32  21  64 S6        30.09S
KENORA         CLEAR     36  21  55 SE8       30.07S
$$
                *** MANITOBA***

CITY           SKY/WX    TMP DP  RH WIND       PRES   REMARKS
BRANDON        PTCLDY    36  30  80 E13       29.87S
DAUPHIN        CLEAR     36  32  87 SE10      29.90S
ISLAND LAKE    NOT AVBL
PILOT MOUND    NOT AVBL
THE PAS        CLOUDY    36  30  80 E8          N/A
THOMPSON       CLEAR     27  25  93 NE12      30.13R WCI  16
WINNIPEG       PTCLDY    39  23  52 SE14      29.98F
LYNN LAKE      CLEAR     23  19  86 E9        30.14S WCI  13
CHURCHILL      CLOUDY    21  19  93 N10       30.26R WCI  10
GILLAM         MOCLDY    25  19  80 NE7       30.18R WCI  17
$$
                ***SASKATCHEWAN***

CITY           SKY/WX    TMP DP  RH WIND       PRES   REMARKS
ESTEVAN        CLOUDY    45  36  70 E23G29    29.56F
KINDERSLEY     LGT RAIN  46  36  66 E21G29    29.42S
LLOYDMINSTER   LGT RAIN  45  36  70 E24G35    29.48F
PRINCE ALBERT  CLOUDY    43  34  70 E17G24    29.73F
REGINA         MOCLDY    46  34  61 E23G32    29.55F
YORKTON        PTCLDY    39  32  75 E15G22    29.78S
N. BATTLEFORD  MOCLDY    43  36  75 E26G32    29.56F
LA RONGE       MOCLDY    37  30  75 NE16G25   29.88F
SASKATOON      CLOUDY    45  34  65 E25G37    29.59F
SWIFT CURRENT  LGT RAIN  46  36  66 SE12G18   29.45R
$$
NOTE: THESE ARE AUTOMATED STATIONS WITH LIMITED QUALITY CONTROL
      "FAIR" INDICATES FEW OR NO CLOUDS BELOW 12,000 FEET WITH NO
      SIGNIFICANT WEATHER AND/OR OBSTRUCTIONS TO VISIBILITY.
      SKY/WX - SKY CONDITION AND SIGNIFICANT WEATHER.
      TMP - AIR TEMPERATURE.    DP   - DEWPOINT TEMPERATURE.
      RH  - RELATIVE HUMIDITY.  PRES - PRESSURE.
      HX  - HEAT INDEX.         WCI  - WIND CHILL INDEX.
$



USA.gov is the U.S. government's official web portal to all federal, state and local government web resources and services.